N7MLR Weather Reports


time (UTC)temp
F
wind
direction
speed
knots
gust
knots
rain 1hr
in
rain 24hr
in
rain mn
in
humidity
%
barometer
mb
20260902182633 99 196 0.9 0.9 0.00 0.00 0.00 42 1014.6
20260902182129 99 179 0.9 0.9 0.00 0.00 0.00 43 1014.7
20260902181625 98 180 0.9 0.9 0.00 0.00 0.00 43 1014.6
20260902181124 98 159 1.7 1.7 0.00 0.00 0.00 44 1015.0
20260902180619 98 177 0.9 1.7 0.00 0.00 0.00 43 1014.9
20260902180116 99 193 0.9 1.7 0.00 0.00 0.00 44 1015.1
20260902175614 99 190 0.9 0.9 0.00 0.00 0.00 42 1015.1
20260902175110 97 195 1.7 1.7 0.00 0.00 0.00 44 1015.2
20260902174607 99 150 0.9 1.7 0.00 0.00 0.00 43 1015.3
20260902174102 99 149 1.7 1.7 0.00 0.00 0.00 42 1015.4
20260902173601 98 193 0.9 1.7 0.00 0.00 0.00 43 1015.3
20260902173057 98 159 1.7 1.7 0.00 0.00 0.00 44 1015.6
20260902172550 97 106 2.6 2.6 0.00 0.00 0.00 46 1015.7
20260902172045 96 216 0.0 0.9 0.00 0.00 0.00 47 1015.6
20260902171541 97 264 0.9 1.7 0.00 0.00 0.00 48 1015.7
20260902171037 98 218 1.7 1.7 0.00 0.00 0.00 48 1015.7
20260902170531 97 198 0.9 0.9 0.00 0.00 0.00 47 1015.7
20260902170028 97 198 1.7 1.7 0.00 0.00 0.00 47 1016.0
20260902165522 98 202 0.0 0.9 0.00 0.00 0.00 46 1015.8
20260902165022 95 91 1.7 1.7 0.00 0.00 0.00 49 1015.9
20260902164517 95 200 2.6 2.6 0.00 0.00 0.00 51 1016.0
20260902164015 94 208 0.9 1.7 0.00 0.00 0.00 52 1016.0
20260902163512 93 209 0.0 0.9 0.00 0.00 0.00 53 1016.0
20260902163009 93 197 0.9 0.9 0.00 0.00 0.00 53 1016.2
20260902162504 93 208 0.9 1.7 0.00 0.00 0.00 53 1016.2
20260902161959 92 219 1.7 1.7 0.00 0.00 0.00 54 1016.0
20260902161454 93 198 0.9 1.7 0.00 0.00 0.00 54 1016.4
20260902160949 92 207 0.9 1.7 0.00 0.00 0.00 56 1016.0
20260902160445 92 190 0.9 1.7 0.00 0.00 0.00 57 1016.3
20260902155943 93 205 0.9 1.7 0.00 0.00 0.00 57 1016.1
20260902155439 92 203 0.9 0.9 0.00 0.00 0.00 57 1016.2
20260902154932 92 198 1.7 2.6 0.00 0.00 0.00 58 1016.0
20260902154428 91 170 0.9 1.7 0.00 0.00 0.00 58 1016.1
20260902153927 91 202 0.9 1.7 0.00 0.00 0.00 59 1016.1
20260902153426 89 180 1.7 1.7 0.00 0.00 0.00 61 1016.0
20260902152922 88 205 1.7 2.6 0.00 0.00 0.00 63 1016.1
20260902152418 87 202 0.9 0.9 0.00 0.00 0.00 65 1016.2
20260902151913 87 185 0.9 1.7 0.00 0.00 0.00 67 1016.1
20260902151409 87 221 0.9 1.7 0.00 0.00 0.00 68 1016.1
20260902150903 86 213 1.7 1.7 0.00 0.00 0.00 69 1016.2
20260902150359 86 216 1.7 1.7 0.00 0.00 0.00 70 1016.1
20260902145858 85 198 0.9 0.9 0.00 0.00 0.00 72 1016.2
20260902145354 85 201 0.9 0.9 0.00 0.00 0.00 72 1016.2
20260902144849 86 205 0.9 0.9 0.00 0.00 0.00 72 1016.2
20260902144345 86 196 0.9 0.9 0.00 0.00 0.00 72 1016.3
20260902143845 86 209 0.9 0.9 0.00 0.00 0.00 74 1016.2
20260902143340 85 208 1.7 1.7 0.00 0.00 0.00 75 1016.2
20260902142836 84 207 0.9 0.9 0.00 0.00 0.00 77 1016.2
20260902142332 82 207 0.9 0.9 0.00 0.00 0.00 79 1016.5
20260902141826 82 204 0.9 0.9 0.00 0.00 0.00 79 1016.3
20260902141322 82 205 0.0 0.9 0.00 0.00 0.00 80 1016.4
20260902140821 81 193 0.9 0.9 0.00 0.00 0.00 81 1016.4
20260902140317 81 201 0.0 0.9 0.00 0.00 0.00 81 1016.4
20260902135816 81 189 0.9 1.7 0.00 0.00 0.00 80 1016.2
20260902135312 80 217 0.9 0.9 0.00 0.00 0.00 80 1016.1
20260902134811 80 191 0.9 0.9 0.00 0.00 0.00 80 1015.9
20260902134307 80 192 0.9 0.9 0.00 0.00 0.00 80 1016.1
20260902133802 79 192 0.0 0.0 0.00 0.00 0.00 80 1016.1
20260902133301 79 192 0.9 0.9 0.00 0.00 0.00 81 1016.2
20260902132757 78 192 0.0 0.9 0.00 0.00 0.00 81 1015.9
20260902132252 78 192 0.0 0.0 0.00 0.00 0.00 81 1016.0
20260902131748 77 192 0.0 0.0 0.00 0.00 0.00 82 1015.8
20260902131244 77 193 0.0 0.0 0.00 0.00 0.00 83 1016.0
20260902130743 75 193 0.0 0.0 0.00 0.00 0.00 86 1016.0
20260902130239 74 193 0.0 0.0 0.00 0.00 0.00 88 1015.9
20260902125734 74 193 0.0 0.0 0.00 0.00 0.00 88 1015.7
20260902125230 73 193 0.0 0.0 0.00 0.00 0.00 89 1015.9
20260902124727 73 193 0.9 0.9 0.00 0.00 0.00 90 1015.8
20260902124222 72 194 0.9 0.9 0.00 0.00 0.00 91 1015.6
20260902123717 72 193 0.0 0.9 0.00 0.00 0.00 91 1015.7
20260902123213 71 194 0.0 0.9 0.00 0.00 0.00 92 1015.4
20260902122712 71 194 0.0 0.0 0.00 0.00 0.00 92 1015.6
20260902122208 71 194 0.0 0.0 0.00 0.00 0.00 92 1015.3
20260902121702 71 194 0.0 0.0 0.00 0.00 0.00 93 1015.4
20260902121156 71 194 0.0 0.0 0.00 0.00 0.00 93 1015.4
20260902120653 71 194 0.0 0.0 0.00 0.00 0.00 93 1015.4
20260902120149 71 194 0.0 0.0 0.00 0.00 0.00 93 1015.2
20260902115648 71 194 0.0 0.0 0.00 0.00 0.00 92 1015.3
20260902115145 71 194 0.0 0.0 0.00 0.00 0.00 92 1015.4
20260902114640 71 194 0.0 0.0 0.00 0.00 0.00 92 1015.3
20260902114135 71 194 0.0 0.0 0.00 0.00 0.00 92 1015.4
20260902113631 71 194 0.0 0.0 0.00 0.00 0.00 92 1015.5
20260902113126 71 194 0.0 0.0 0.00 0.00 0.00 91 1015.2
20260902112621 71 194 0.0 0.0 0.00 0.00 0.00 91 1015.2
20260902112118 72 194 0.0 0.0 0.00 0.00 0.00 91 1015.3
20260902111608 72 194 0.0 0.0 0.00 0.00 0.00 91 1015.1
20260902111103 72 194 0.0 0.0 0.00 0.00 0.00 91 1015.0
20260902110559 72 194 0.0 0.0 0.00 0.00 0.00 90 1015.3
20260902110055 72 194 0.0 0.0 0.00 0.00 0.00 90 1015.4
20260902105555 72 194 0.0 0.0 0.00 0.00 0.00 89 1015.1
20260902105055 73 194 0.0 0.0 0.00 0.00 0.00 89 1015.2
20260902104550 73 194 0.0 0.0 0.00 0.00 0.00 88 1015.2
20260902104045 73 194 0.0 0.0 0.00 0.00 0.00 87 1015.0
20260902103540 74 194 0.0 0.9 0.00 0.00 0.00 87 1015.4
20260902103035 74 195 0.9 0.9 0.00 0.00 0.00 87 1015.1
20260902102532 74 195 0.0 0.9 0.00 0.00 0.00 87 1015.3
20260902102029 74 196 0.0 0.9 0.00 0.00 0.00 87 1015.0
20260902101524 73 197 0.9 0.9 0.00 0.00 0.00 88 1014.8
20260902101022 73 198 0.9 0.9 0.00 0.00 0.00 88 1015.1
20260902100517 73 205 0.0 0.0 0.00 0.00 0.00 88 1015.1
20260902100012 73 206 0.0 0.0 0.00 0.00 0.00 88 1015.2
20260902095511 73 205 0.0 0.0 0.00 0.00 0.00 87 1015.1
20260902095010 74 206 0.0 0.0 0.00 0.00 0.00 87 1015.4
20260902094506 74 206 0.0 0.0 0.00 0.00 0.00 87 1015.3
20260902094001 74 206 0.0 0.0 0.00 0.00 0.00 86 1015.1
20260902093456 74 206 0.0 0.0 0.00 0.00 0.00 86 1015.0
20260902092955 75 206 0.0 0.0 0.00 0.00 0.00 86 1015.3
20260902092451 74 206 0.0 0.0 0.00 0.00 0.00 86 1015.3
20260902091951 74 206 0.0 0.0 0.00 0.00 0.00 86 1015.4
20260902091446 74 206 0.0 0.0 0.00 0.00 0.00 86 1015.4
20260902090942 75 206 0.0 0.0 0.00 0.00 0.00 86 1015.5
20260902090437 75 206 0.0 0.0 0.00 0.00 0.00 85 1015.4
20260902085936 75 206 0.0 0.0 0.00 0.00 0.00 85 1015.4
20260902085431 75 206 0.0 0.0 0.00 0.00 0.00 85 1015.4
20260902084927 75 206 0.0 0.0 0.00 0.00 0.00 85 1015.4
20260902084423 75 206 0.0 0.0 0.00 0.00 0.00 85 1015.4
20260902083919 75 206 0.0 0.0 0.00 0.00 0.00 85 1015.5
20260902083419 76 206 0.0 0.0 0.00 0.00 0.00 84 1015.3
20260902082913 76 206 0.0 0.0 0.00 0.00 0.00 82 1015.5
20260902082409 76 205 0.0 0.0 0.00 0.00 0.00 82 1015.6
20260902081906 76 196 0.9 0.9 0.00 0.00 0.00 83 1015.5
20260902081402 77 198 0.9 0.9 0.00 0.00 0.00 82 1015.5
20260902080856 77 207 0.0 0.0 0.00 0.00 0.00 82 1015.5
20260902080353 76 200 0.0 0.9 0.00 0.00 0.00 84 1015.5
20260902075852 75 200 0.0 0.9 0.00 0.00 0.00 85 1015.7
20260902075348 75 200 0.0 0.0 0.00 0.00 0.00 85 1015.8
20260902074843 75 200 0.0 0.0 0.00 0.00 0.00 85 1015.7
20260902074339 75 200 0.0 0.0 0.00 0.00 0.00 84 1015.7
20260902073834 75 200 0.0 0.0 0.00 0.00 0.00 84 1015.6
20260902073330 75 200 0.0 0.0 0.00 0.00 0.00 84 1015.8
20260902072826 76 200 0.0 0.0 0.00 0.00 0.00 84 1015.5
20260902072321 76 200 0.0 0.0 0.00 0.00 0.00 84 1015.6
20260902071818 76 200 0.0 0.0 0.00 0.00 0.00 83 1015.5
20260902071312 76 200 0.0 0.0 0.00 0.00 0.00 83 1015.6
20260902070809 77 200 0.0 0.0 0.00 0.00 0.00 82 1015.5
20260902070308 77 200 0.0 0.0 0.00 0.00 0.00 81 1015.5
20260902065807 77 200 0.0 0.0 0.00 0.00 0.00 80 1015.5
20260902065306 78 200 0.0 0.0 0.00 0.00 0.00 80 1015.7
20260902064758 78 200 0.0 0.0 0.00 0.00 0.00 78 1015.5
20260902064254 79 200 0.0 0.9 0.00 0.00 0.00 77 1015.5
20260902063749 79 206 0.0 0.9 0.00 0.00 0.00 77 1015.5
20260902063244 79 198 0.9 0.9 0.00 0.00 0.00 77 1015.5
20260902062743 79 202 0.0 0.9 0.00 0.00 0.00 77 1015.6
20260902062238 80 207 0.0 0.9 0.00 0.00 0.00 77 1015.5
20260902061737 79 201 0.0 0.0 0.00 0.00 0.00 77 1015.5
20260902061233 78 206 0.0 0.9 0.00 0.00 0.00 79 1015.5
20260902060730 78 222 0.0 0.0 0.00 0.00 0.00 78 1015.4
20260902060225 78 222 0.0 0.0 0.00 0.00 0.00 78 1015.6
20260902055720 79 222 0.0 0.0 0.00 0.00 0.00 77 1015.6
20260902055217 79 222 0.0 0.0 0.00 0.00 0.00 77 1015.4
20260902054712 79 222 0.0 0.0 0.00 0.00 0.00 76 1015.6
20260902054207 80 222 0.0 0.0 0.00 0.00 0.00 76 1015.4
20260902053703 80 222 0.0 0.0 0.00 0.00 0.00 75 1015.8
20260902053202 80 222 0.0 0.0 0.00 0.00 0.00 74 1015.5
20260902052701 81 221 0.0 0.0 0.00 0.00 0.00 74 1015.5
20260902052157 81 221 0.0 0.0 0.00 0.00 0.00 73 1015.6
20260902051656 81 202 0.9 1.7 0.00 0.00 0.00 72 1015.4
20260902051151 82 218 0.0 0.0 0.00 0.00 0.00 71 1015.4
20260902050645 83 209 0.0 0.9 0.00 0.00 0.00 70 1015.2
20260902050141 83 211 0.0 0.9 0.00 0.00 0.00 69 1015.4
20260902045635 83 217 0.0 0.9 0.00 0.00 0.00 69 1015.5
20260902045132 83 208 0.0 0.9 0.00 0.00 0.00 69 1015.4
20260902044626 83 208 0.9 0.9 0.00 0.00 0.00 69 1015.4
20260902044122 82 214 0.0 0.9 0.00 0.00 0.00 70 1015.3
20260902043617 82 206 0.9 0.9 0.00 0.00 0.00 71 1015.1
20260902043112 82 225 0.0 0.0 0.00 0.00 0.00 71 1015.3
20260902042611 82 225 0.0 0.9 0.00 0.00 0.00 70 1015.2
20260902042108 83 226 0.0 0.0 0.00 0.00 0.00 69 1015.3
20260902041607 83 231 0.9 0.9 0.00 0.00 0.00 69 1015.1
20260902041101 83 222 0.9 0.9 0.00 0.00 0.00 69 1015.1
20260902040555 83 229 0.9 0.9 0.00 0.00 0.00 69 1015.1
20260902040050 83 219 0.0 0.0 0.00 0.00 0.00 68 1015.2
20260902035549 83 226 0.9 0.9 0.00 0.00 0.00 68 1015.1
20260902035044 84 225 0.0 0.0 0.00 0.00 0.00 67 1015.0
20260902034544 84 220 0.0 0.0 0.00 0.00 0.00 66 1015.1
20260902034043 85 207 0.0 0.9 0.00 0.00 0.00 66 1015.0
20260902033542 85 207 0.0 0.9 0.00 0.00 0.00 66 1014.8
20260902033037 85 218 0.0 0.0 0.00 0.00 0.00 65 1014.9
20260902032536 85 210 0.9 1.7 0.00 0.00 0.00 64 1015.0
20260902032031 85 212 0.0 0.0 0.00 0.00 0.00 64 1014.9
20260902031526 84 209 0.9 0.9 0.00 0.00 0.00 67 1014.8
20260902031022 83 230 0.0 0.0 0.00 0.00 0.00 68 1014.9
20260902030516 83 230 0.0 0.0 0.00 0.00 0.00 68 1014.7
20260902030011 84 230 0.0 0.0 0.00 0.00 0.00 67 1014.3
20260902025506 84 230 0.0 0.0 0.00 0.00 0.00 67 1014.5
20260902025001 84 230 0.0 0.0 0.00 0.00 0.00 66 1014.2
20260902024456 85 230 0.0 0.0 0.00 0.00 0.00 65 1014.3
20260902023956 86 229 0.0 0.0 0.00 0.00 0.00 64 1014.5
20260902023452 86 220 0.0 0.0 0.00 0.00 0.00 63 1014.1
20260902022951 86 225 0.0 0.0 0.00 0.00 0.00 62 1014.0
20260902022447 86 216 0.0 0.9 0.00 0.00 0.00 62 1013.7
20260902021942 86 213 0.0 0.9 0.00 0.00 0.00 63 1013.8
20260902021437 86 204 0.9 0.9 0.00 0.00 0.00 62 1013.6
20260902020932 87 212 0.0 0.9 0.00 0.00 0.00 61 1013.7
20260902020429 87 206 0.0 0.9 0.00 0.00 0.00 61 1013.5
20260902015924 87 205 0.0 0.0 0.00 0.00 0.00 61 1013.2
20260902015420 87 202 0.0 0.9 0.00 0.00 0.00 60 1013.3
20260902014915 87 209 0.9 0.9 0.00 0.00 0.00 60 1013.4
20260902014411 87 202 0.9 0.9 0.00 0.00 0.00 60 1013.2
20260902013910 86 230 0.0 0.0 0.00 0.00 0.00 60 1013.4
20260902013406 87 230 0.0 0.0 0.00 0.00 0.00 59 1013.3
20260902012901 87 228 0.0 0.0 0.00 0.00 0.00 58 1013.2
20260902012357 88 228 0.0 0.9 0.00 0.00 0.00 58 1013.3
20260902011852 88 227 0.0 0.0 0.00 0.00 0.00 57 1013.2
20260902011346 89 227 0.0 0.0 0.00 0.00 0.00 56 1012.9
20260902010841 89 219 0.0 0.0 0.00 0.00 0.00 55 1012.8
20260902010336 90 248 0.9 0.9 0.00 0.00 0.00 54 1012.9
20260902005835 90 210 1.7 2.6 0.00 0.00 0.00 52 1012.9
20260902005335 91 212 0.0 0.0 0.00 0.00 0.00 50 1012.7
20260902004830 92 201 0.9 0.9 0.00 0.00 0.00 49 1012.9
20260902004325 92 213 0.9 0.9 0.00 0.00 0.00 48 1012.8
20260902003820 93 210 0.0 0.9 0.00 0.00 0.00 48 1012.9
20260902003315 93 221 0.9 1.7 0.00 0.00 0.00 46 1013.0
20260902002811 94 209 0.0 0.9 0.00 0.00 0.00 46 1012.7
20260902002310 94 238 0.0 0.9 0.00 0.00 0.00 45 1013.0
20260902001806 94 221 0.0 0.9 0.00 0.00 0.00 46 1013.3
20260902001301 94 232 1.7 2.6 0.00 0.00 0.00 45 1012.9
20260902000801 95 231 0.9 0.9 0.00 0.00 0.00 45 1013.1
20260902000257 95 212 0.0 0.9 0.00 0.00 0.00 44 1012.8
20260901235750 95 232 0.9 0.9 0.00 0.00 0.00 44 1013.0
20260901235245 95 222 0.0 0.0 0.00 0.00 0.00 43 1013.0
20260901234744 95 212 0.0 0.0 0.00 0.00 0.00 44 1012.9
20260901234239 96 202 0.9 0.9 0.00 0.00 0.00 42 1012.9
20260901233734 96 210 0.0 0.9 0.00 0.00 0.00 43 1013.1
20260901233231 95 208 0.9 0.9 0.00 0.00 0.00 44 1013.1
20260901232731 95 224 0.0 0.9 0.00 0.00 0.00 44 1013.0
20260901232226 96 225 0.9 0.9 0.00 0.00 0.00 43 1013.0
20260901231722 96 217 0.9 0.9 0.00 0.00 0.00 43 1013.0
20260901231218 96 211 0.9 2.6 0.00 0.00 0.00 42 1012.9
20260901230714 97 226 0.0 0.9 0.00 0.00 0.00 42 1012.9
20260901230213 96 224 0.9 0.9 0.00 0.00 0.00 43 1013.0
20260901225709 97 236 1.7 1.7 0.00 0.00 0.00 41 1013.0
20260901225203 98 230 0.9 0.9 0.00 0.00 0.00 40 1013.1
20260901224659 97 202 0.9 1.7 0.00 0.00 0.00 40 1013.0
20260901224155 97 206 0.0 0.9 0.00 0.00 0.00 40 1013.2
20260901223651 98 202 0.0 0.9 0.00 0.00 0.00 38 1013.2
20260901223146 97 210 0.0 0.0 0.00 0.00 0.00 39 1013.0
20260901222642 97 208 0.9 1.7 0.00 0.00 0.00 40 1013.2
20260901222138 97 216 0.0 0.9 0.00 0.00 0.00 40 1013.0
20260901221633 98 204 0.9 0.9 0.00 0.00 0.00 39 1013.0
20260901221129 98 197 1.7 1.7 0.00 0.00 0.00 39 1012.9
20260901220628 97 208 0.9 0.9 0.00 0.00 0.00 40 1013.1
20260901220127 98 228 1.7 1.7 0.00 0.00 0.00 39 1013.2
20260901215626 98 222 0.9 0.9 0.00 0.00 0.00 39 1013.1
20260901215120 99 164 0.9 1.7 0.00 0.00 0.00 38 1013.1
20260901214619 96 196 0.9 0.9 0.00 0.00 0.00 40 1013.1
20260901214119 98 193 1.7 1.7 0.00 0.00 0.00 40 1013.3
20260901213613 98 190 0.9 0.9 0.00 0.00 0.00 37 1013.4
20260901213107 99 188 0.9 1.7 0.00 0.00 0.00 38 1013.5
20260901212607 98 248 2.6 2.6 0.00 0.00 0.00 38 1013.4
20260901212104 99 200 0.0 0.9 0.00 0.00 0.00 39 1013.4
20260901211558 98 202 0.9 0.9 0.00 0.00 0.00 40 1013.2
20260901211055 98 210 0.9 1.7 0.00 0.00 0.00 40 1013.7
20260901210550 98 171 0.9 1.7 0.00 0.00 0.00 39 1013.5
20260901210047 99 180 2.6 2.6 0.00 0.00 0.00 40 1013.7
20260901205541 99 176 0.9 1.7 0.00 0.00 0.00 39 1013.8
20260901205036 99 181 0.9 0.9 0.00 0.00 0.00 39 1013.8
20260901204532 98 208 0.9 1.7 0.00 0.00 0.00 40 1014.0
20260901204027 98 129 1.7 1.7 0.00 0.00 0.00 40 1013.8
20260901203521 100 132 2.6 2.6 0.00 0.00 0.00 39 1014.1
20260901203016 98 180 0.9 0.9 0.00 0.00 0.00 41 1014.3
20260901202511 98 202 1.7 1.7 0.00 0.00 0.00 40 1014.2
20260901202007 98 194 0.0 0.9 0.00 0.00 0.00 41 1014.4
20260901201502 98 231 0.9 1.7 0.00 0.00 0.00 41 1014.3
20260901200956 98 236 0.9 1.7 0.00 0.00 0.00 41 1014.5
20260901200451 97 200 0.0 0.9 0.00 0.00 0.00 42 1014.5
20260901195950 97 225 1.7 1.7 0.00 0.00 0.00 42 1014.6
20260901195449 98 200 0.9 0.9 0.00 0.00 0.00 42 1014.8
20260901194943 98 191 0.9 0.9 0.00 0.00 0.00 41 1014.7
20260901194438 98 214 1.7 2.6 0.00 0.00 0.00 41 1014.9
20260901193935 97 228 2.6 2.6 0.00 0.00 0.00 42 1014.7
20260901193434 98 225 0.9 0.9 0.00 0.00 0.00 42 1014.9
20260901192933 98 277 1.7 4.3 0.00 0.00 0.00 42 1015.0
20260901192429 97 164 2.6 4.3 0.00 0.00 0.00 42 1015.0
20260901191925 97 190 0.0 0.9 0.00 0.00 0.00 42 1015.1
20260901191420 97 205 0.0 0.0 0.00 0.00 0.00 43 1015.2
20260901190911 96 244 0.9 0.9 0.00 0.00 0.00 44 1015.3
20260901190411 96 219 4.3 6.1 0.00 0.00 0.00 45 1015.2
20260901185909 97 194 0.9 1.7 0.00 0.00 0.00 44 1015.3
20260901185408 96 137 2.6 4.3 0.00 0.00 0.00 44 1015.5
20260901184903 98 210 1.7 1.7 0.00 0.00 0.00 42 1015.6
20260901184359 97 231 1.7 1.7 0.00 0.00 0.00 44 1015.6
20260901183854 97 196 0.9 1.7 0.00 0.00 0.00 45 1015.6
20260901183353 96 189 0.9 0.9 0.00 0.00 0.00 45 1015.5
20260901182849 96 235 0.9 0.9 0.00 0.00 0.00 45 1016.0